{"data":{"norad_id":61943,"intl_designator":"2024-209E","name":"STARLINK-11425 [DTC]","alt_names":[],"object_type":"PAYLOAD","status":"ACTIVE","operator":null,"country":"US","launch_date":"2024-11-14","launch_site_code":"AFWTR","launch_vehicle":null,"mission":null,"orbit_class":"UNKNOWN","rcs_meters":null,"size_class":null,"mass_kg":null,"dimensions":null,"purposes":["comms"],"wikipedia_slug":null,"has_3d_model":false,"image_url":null,"decayed_at":null,"tle_current":{"epoch":"2026-05-24T20:03:28.583136Z","epoch_age_seconds":83247,"freshness":"FRESH","line1":"1 61943U 24209E   26144.83574749  .00129808  00000+0  10582-2 0  9999","line2":"2 61943  53.1573 356.1727 0000886  78.4730 281.6387 15.69741859 88636","mean_motion":15.69741859,"eccentricity":8.86e-5,"inclination_deg":53.1573,"raan_deg":356.1727,"arg_perigee_deg":78.473,"mean_anomaly_deg":281.6387,"bstar":0.0010582,"rev_number":8863,"period_min":91.734828356896,"perigee_km":359.03861704778,"apogee_km":360.23255034961,"semimajor_km":6737.7725836987,"source":"CELESTRAK","updated_at":"2026-05-25T13:38:19.486580Z"}}}